This is the latest recevied weather packets stored in our database for station/object KD8DNS. If no packets are shown the sender has not sent any weather packets the latest 10 day(s).
| Time | Temp. | Humidity | Pressure | Rain* | Wind** | Luminosity | Snow |
|---|---|---|---|---|---|---|---|
| 1788146414 | 22.78° C | 91% | 1022.2 hPa | 0 mm | - | 0 W/m² | - |
| 1788146114 | 22.78° C | 91% | 1021.9 hPa | 0 mm | - | 0 W/m² | - |
| 1788145813 | 22.78° C | 91% | 1022 hPa | 0 mm | - | 0 W/m² | - |
| 1788145513 | 22.78° C | 91% | 1022.2 hPa | 0 mm | - | 0 W/m² | - |
| 1788145212 | 23.33° C | 91% | 1022.2 hPa | 0 mm | - | 0 W/m² | - |
| 1788144909 | 23.33° C | 91% | 1022 hPa | 0 mm | - | 0 W/m² | - |
| 1788144605 | 23.33° C | 91% | 1022.1 hPa | 0 mm | - | 0 W/m² | - |
| 1788144295 | 23.33° C | 91% | 1022.3 hPa | 0 mm | - | 0 W/m² | - |
| 1788143995 | 22.78° C | 90% | 1022.1 hPa | 0 mm | - | 0 W/m² | - |
| 1788143693 | 23.33° C | 90% | 1022.2 hPa | 0 mm | - | 0 W/m² | - |
| 1788143388 | 23.33° C | 89% | 1022.3 hPa | 0 mm | - | 0 W/m² | - |
| 1788143087 | 23.33° C | 89% | 1022.2 hPa | 0 mm | - | 0 W/m² | - |
| 1788142782 | 23.33° C | 89% | 1022.3 hPa | 0 mm | - | 0 W/m² | - |
| 1788142481 | 23.89° C | 89% | 1022.1 hPa | 0 mm | - | 0 W/m² | - |
| 1788142177 | 23.89° C | 89% | 1022.2 hPa | 0 mm | - | 0 W/m² | - |
| 1788141884 | 23.89° C | 88% | 1022.4 hPa | 0 mm | - | 0 W/m² | - |
| 1788141566 | 23.89° C | 88% | 1022.3 hPa | 0 mm | - | 0 W/m² | - |
| 1788141262 | 23.89° C | 88% | 1022.3 hPa | 0 mm | - | 0 W/m² | - |
| 1788140956 | 23.89° C | 87% | 1022.2 hPa | 0 mm | - | 0 W/m² | - |
| 1788140651 | 24.44° C | 87% | 1022.2 hPa | 0 mm | - | 0 W/m² | - |
| 1788140347 | 24.44° C | 87% | 1022 hPa | 0 mm | - | 0 W/m² | - |
| 1788140043 | 24.44° C | 86% | 1022.1 hPa | 0 mm | - | 0 W/m² | - |
| 1788139742 | 24.44° C | 86% | 1022.1 hPa | 0 mm | - | 0 W/m² | - |
| 1788139437 | 25° C | 85% | 1021.8 hPa | 0 mm | - | 0 W/m² | - |
| 1788139132 | 25° C | 84% | 1022 hPa | 0 mm | - | 0 W/m² | - |
* Rain latest hour (hover to see other rain measurements)
** Current wind speed in m/s (hover to see current wind gust speed)